DW6513 Weather Reports


time (UTC)temp
C
wind
direction
speed
KPH
gust
KPH
rain 1hr
cm
rain 24hr
cm
rain mn
cm
humidity
%
barometer
mb
20260510105804 13 257 0.0 0.0 0.00 0.00 0.00 93 1016.6
20260510105306 13 248 0.0 0.0 0.00 0.00 0.00 93 1016.6
20260510104804 13 303 0.0 0.0 0.00 0.00 0.00 93 1016.6
20260510104303 13 313 0.0 0.0 0.00 0.00 0.00 93 1016.6
20260510103804 14 303 0.0 0.0 0.00 0.00 0.00 93 1016.6
20260510103304 14 251 0.0 0.0 0.00 0.00 0.00 93 1016.6
20260510102804 14 257 0.0 4.8 0.00 0.00 0.00 93 1016.6
20260510102306 14 325 1.6 4.8 0.00 0.00 0.00 93 1016.6
20260510101804 14 280 1.6 0.0 0.00 0.00 0.00 93 1016.6
20260510101304 14 199 1.6 4.8 0.00 0.00 0.00 93 1016.6
20260510100804 14 10 1.6 8.0 0.00 0.00 0.00 93 1016.8
20260510100308 14 4 1.6 8.0 0.00 0.00 0.00 92 1016.8
20260510095804 14 190 0.0 0.0 0.00 0.00 0.00 92 1016.8
20260510094804 15 325 1.6 9.7 0.00 0.00 0.00 92 1016.5
20260510094304 15 347 1.6 9.7 0.00 0.00 0.00 92 1016.5
20260510093804 15 145 0.0 0.0 0.00 0.00 0.00 92 1016.5
20260510093304 15 181 0.0 0.0 0.00 0.00 0.00 92 1016.5
20260510092811 15 325 0.0 0.0 0.00 0.00 0.00 92 1015.6
20260510092307 15 123 0.0 0.0 0.00 0.00 0.00 91 1015.6
20260510091804 15 145 0.0 0.0 0.00 0.00 0.00 91 1015.6
20260510091303 15 145 0.0 0.0 0.00 0.00 0.00 91 1015.6
20260510090804 15 145 0.0 0.0 0.00 0.00 0.00 91 1015.1
20260510090304 15 145 0.0 0.0 0.00 0.00 0.00 91 1015.1
20260510085804 15 190 0.0 0.0 0.00 0.00 0.00 91 1015.1
20260510085306 15 190 0.0 0.0 0.00 0.00 0.00 90 1015.1
20260510084805 15 190 0.0 0.0 0.00 0.00 0.00 90 1015.0
20260510084304 15 190 0.0 0.0 0.00 0.00 0.00 90 1015.0
20260510083804 15 190 0.0 0.0 0.00 0.00 0.00 90 1015.0
20260510083304 15 190 0.0 0.0 0.00 0.00 0.00 90 1015.0
20260510082803 15 190 0.0 3.2 0.00 0.00 0.00 89 1014.5
20260510081805 15 325 0.0 0.0 0.00 0.00 0.00 89 1014.5
20260510081304 15 347 0.0 0.0 0.00 0.00 0.00 89 1014.5
20260510080804 15 347 0.0 0.0 0.00 0.00 0.00 89 1014.1
20260510080304 15 347 0.0 0.0 0.00 0.00 0.00 89 1014.1
20260510075804 15 347 0.0 0.0 0.00 0.00 0.00 89 1014.1
20260510075306 15 347 0.0 0.0 0.00 0.00 0.00 88 1014.1
20260510074805 15 347 0.0 0.0 0.00 0.00 0.00 88 1014.1
20260510074304 15 347 0.0 0.0 0.00 0.00 0.00 88 1014.1
20260510073806 15 167 0.0 0.0 0.00 0.00 0.00 86 1014.1
20260510073304 16 303 0.0 0.0 0.00 0.00 0.00 86 1013.8
20260510072305 16 261 0.0 3.2 0.00 0.00 0.00 86 1013.8
20260510071804 16 190 0.0 0.0 0.00 0.00 0.00 86 1013.8
20260510071304 16 325 0.0 0.0 0.00 0.00 0.00 86 1013.8
20260510070304 16 167 0.0 0.0 0.00 0.00 0.00 86 1014.3
20260510065804 16 167 0.0 0.0 0.00 0.00 0.00 86 1014.3
20260510064803 16 347 1.6 0.0 0.00 0.00 0.00 87 1014.5
20260510064304 16 314 3.2 4.8 0.00 0.00 0.00 87 1014.5
20260510063803 16 303 3.2 11.3 0.00 0.00 0.00 88 1014.5
20260510063304 16 307 1.6 11.3 0.00 0.00 0.00 89 1014.5
20260510062306 16 303 1.6 4.8 0.00 0.00 0.00 89 1014.1
20260510061304 16 318 0.0 4.8 0.00 0.00 0.00 89 1014.1
20260510060803 16 33 0.0 3.2 0.00 0.00 0.00 91 1013.6
20260510060304 17 34 0.0 0.0 0.00 0.00 0.00 91 1013.6
20260510055804 17 347 0.0 3.2 0.00 0.00 0.00 88 1013.6
20260510055306 16 297 0.0 0.0 0.00 0.00 0.00 88 1013.6
20260510054304 16 181 1.6 3.2 0.00 0.00 0.00 87 1013.3
20260510053805 16 167 1.6 8.0 0.00 0.00 0.00 87 1013.3
20260510052804 16 190 3.2 8.0 0.00 0.00 0.00 86 1014.1
20260510035306 17 42 16.1 37.0 0.00 0.00 0.00 81 1013.7
20260510034803 17 190 20.9 40.2 0.00 0.00 0.00 78 1012.3
20260510034303 18 145 24.1 64.4 0.00 0.00 0.00 73 1012.3
20260510033304 21 350 3.2 86.9 0.00 0.08 0.00 58 1012.3
20260510032802 21 33 0.0 0.0 0.00 0.15 0.00 53 1011.3
20260510031803 21 145 0.0 0.0 0.00 0.25 0.00 53 1011.3
20260510031303 21 145 0.0 0.0 0.00 0.25 0.00 53 1011.3
20260510030803 21 145 0.0 0.0 0.00 0.25 0.00 52 1010.8
20260510030302 21 145 0.0 0.0 0.00 0.25 0.00 52 1010.8
20260510025802 21 145 0.0 0.0 0.00 0.33 0.00 51 1010.8
20260510024803 21 145 0.0 0.0 0.00 0.48 0.00 51 1010.6
20260510024303 21 145 0.0 0.0 0.00 0.48 0.00 50 1010.6
20260510023803 21 145 0.0 0.0 0.00 0.48 0.00 50 1010.6
20260510022306 21 145 0.0 0.0 0.00 0.48 0.00 49 1010.2
20260510021803 21 145 0.0 0.0 0.00 0.48 0.00 48 1010.2
20260510021302 21 145 0.0 0.0 0.00 0.48 0.00 47 1010.2
20260510020303 22 145 0.0 0.0 0.00 0.48 0.00 45 1010.1
20260510015803 22 145 0.0 0.0 0.00 0.48 0.00 45 1010.1
20260510015306 22 145 0.0 0.0 0.00 0.48 0.00 44 1010.1
20260510014803 22 145 0.0 0.0 0.00 0.48 0.00 44 1009.6
20260510014303 22 145 0.0 0.0 0.00 0.48 0.00 42 1009.6
20260510013303 23 145 0.0 0.0 0.00 0.48 0.00 41 1009.6
20260510012306 23 145 0.0 0.0 0.00 0.48 0.00 38 1009.6
20260510011803 23 145 0.0 0.0 0.00 0.48 0.00 37 1009.6
20260510011303 24 145 0.0 0.0 0.00 0.48 0.00 37 1009.6
20260510010802 24 145 0.0 0.0 0.00 0.48 0.00 36 1009.2
20260510005802 25 167 0.0 0.0 0.00 0.48 0.00 36 1009.2
20260510005306 25 167 0.0 0.0 0.00 0.48 0.00 36 1009.2
20260510004802 26 167 0.0 0.0 0.00 0.48 0.00 34 1009.2
20260510004303 26 127 0.0 0.0 0.00 0.48 0.00 34 1009.2
20260510003802 26 167 0.0 0.0 0.00 0.48 0.00 34 1009.2
20260510003304 26 167 0.0 0.0 0.00 0.48 0.00 33 1009.2
20260510002803 26 167 1.6 0.0 0.00 0.48 0.00 33 1008.9
20260510002306 26 163 1.6 0.0 0.00 0.48 0.00 33 1008.9
20260510001803 26 213 1.6 4.8 0.00 0.48 0.00 32 1008.9
20260510001303 26 167 4.8 16.1 0.00 0.48 0.00 32 1008.9
20260510000803 26 100 4.8 16.1 0.00 0.48 0.00 31 1009.2
20260510000304 26 181 4.8 9.7 0.00 0.48 0.00 31 1009.2
20260509235306 26 163 4.8 11.3 0.00 0.48 0.00 31 1009.2
20260509234803 27 123 3.2 12.9 0.00 0.48 0.00 31 1008.5
20260509234303 27 136 4.8 12.9 0.00 0.48 0.00 30 1008.5
20260509233803 27 303 8.0 14.5 0.00 0.48 0.00 30 1008.5
20260509233303 27 141 4.8 20.9 0.00 0.48 0.00 30 1008.5
20260509232306 28 272 8.0 11.3 0.00 0.48 0.00 29 1008.5
20260509231802 28 55 8.0 11.3 0.00 0.48 0.00 29 1008.5
20260509231302 29 287 8.0 11.3 0.00 0.48 0.00 29 1008.5
20260509230303 30 150 9.7 16.1 0.00 0.48 0.00 29 1008.3
20260509225803 30 145 9.7 14.5 0.00 0.48 0.00 29 1008.3
20260509225305 30 145 8.0 14.5 0.00 0.48 0.00 28 1008.3
20260509224803 30 347 4.8 11.3 0.00 0.48 0.00 30 1008.5
20260509224303 30 145 6.4 22.5 0.00 0.48 0.00 29 1008.5
20260509223803 30 167 4.8 19.3 0.00 0.48 0.00 30 1008.5
20260509223302 30 127 4.8 20.9 0.00 0.48 0.00 29 1008.5
20260509222306 30 0 8.0 22.5 0.00 0.48 0.00 29 1008.5
20260509221803 30 347 4.8 8.0 0.00 0.48 0.00 29 1008.5
20260509221303 30 335 4.8 16.1 0.00 0.48 0.00 29 1008.5
20260509220802 30 303 3.2 12.9 0.00 0.48 0.00 29 1008.4
20260509220303 30 309 3.2 12.9 0.00 0.48 0.00 29 1008.4
20260509214803 29 347 9.7 22.5 0.00 0.48 0.00 30 1008.5
20260509214303 29 359 9.7 29.0 0.00 0.48 0.00 29 1008.5
20260509213303 30 307 4.8 14.5 0.00 0.48 0.00 29 1007.3
20260509212802 30 213 8.0 8.0 0.00 0.48 0.00 30 1007.7
20260509212305 30 311 6.4 20.9 0.00 0.48 0.00 32 1007.7
20260509211303 29 80 6.4 22.5 0.00 0.48 0.00 31 1007.7
20260509210304 29 325 9.7 22.5 0.00 0.48 0.00 31 1007.7
20260509205803 29 145 8.0 29.0 0.00 0.48 0.00 31 1007.7
20260509205306 29 163 8.0 29.0 0.00 0.48 0.00 32 1007.7
20260509204803 28 10 8.0 14.5 0.00 0.48 0.00 32 1008.1
20260509204303 28 331 8.0 16.1 0.00 0.48 0.00 32 1008.1
20260509203803 28 145 9.7 16.1 0.00 0.48 0.00 32 1008.1
20260509202803 28 325 9.7 19.3 0.00 0.48 0.00 32 1007.9
20260509201303 28 2 9.7 16.1 0.00 0.48 0.00 33 1007.9
20260509200303 28 42 9.7 20.9 0.00 0.48 0.00 35 1007.9
20260509195803 28 167 11.3 20.9 0.00 0.48 0.00 36 1007.9
20260509195306 28 163 12.9 24.1 0.00 0.48 0.00 37 1007.9
20260509194803 28 145 11.3 24.1 0.00 0.48 0.00 36 1008.3
20260509194303 28 159 9.7 14.5 0.00 0.48 0.00 36 1008.3
20260509193803 28 280 11.3 25.7 0.00 0.48 0.00 36 1008.3
20260509192803 27 347 8.0 19.3 0.00 0.48 0.00 37 1008.4
20260509191803 28 100 9.7 22.5 0.00 0.48 0.00 37 1008.4
20260509191303 27 338 9.7 27.4 0.00 0.48 0.00 40 1008.4
20260509190803 27 145 8.0 22.5 0.00 0.48 0.00 40 1008.5
20260509190304 27 292 8.0 12.9 0.00 0.48 0.00 40 1008.5
20260509185804 27 303 8.0 12.9 0.00 0.48 0.00 40 1008.5
20260509185306 27 115 9.7 12.9 0.00 0.48 0.00 41 1008.5
20260509183803 26 145 11.3 25.7 0.00 0.48 0.00 42 1008.6
20260509183303 26 325 14.5 14.5 0.00 0.48 0.00 43 1008.6
20260509182803 26 280 12.9 29.0 0.00 0.48 0.00 43 1008.6
20260509182306 26 145 9.7 35.4 0.00 0.48 0.00 42 1008.6
20260509181303 26 138 12.9 33.8 0.00 0.48 0.00 45 1008.6
20260509180303 25 325 11.3 27.4 0.00 0.48 0.00 48 1008.7
20260509175803 25 100 12.9 27.4 0.00 0.48 0.00 48 1008.7
20260509175306 24 139 11.3 22.5 0.00 0.48 0.00 52 1008.7
20260509174304 23 335 11.3 29.0 0.00 0.48 0.00 52 1008.9
20260509173804 23 347 11.3 29.0 0.00 0.48 0.00 52 1008.9
20260509172803 23 167 9.7 20.9 0.00 0.48 0.00 55 1009.0
20260509172306 22 140 9.7 27.4 0.00 0.48 0.00 55 1009.0
20260509171803 22 303 12.9 27.4 0.00 0.48 0.00 55 1009.0
20260509171304 22 145 12.9 32.2 0.00 0.48 0.00 58 1009.0
20260509170804 22 145 11.3 32.2 0.00 0.48 0.00 58 1009.5
20260509165803 22 167 11.3 19.3 0.00 0.48 0.00 60 1009.5
20260509165306 21 127 9.7 24.1 0.00 0.48 0.00 59 1009.5
20260509164304 21 149 8.0 19.3 0.00 0.48 0.00 63 1009.4
20260509163803 21 347 8.0 19.3 0.00 0.48 0.00 64 1009.4
20260509162803 20 332 9.7 14.5 0.00 0.48 0.00 65 1009.5
20260509162307 20 138 9.7 22.5 0.00 0.48 0.00 66 1009.5
20260509161804 20 123 8.0 12.9 0.00 0.48 0.00 67 1010.0
20260509161303 20 157 8.0 14.5 0.00 0.48 0.00 68 1010.0
20260509160804 20 123 8.0 11.3 0.00 0.48 0.00 68 1009.9
20260509160303 20 121 4.8 16.1 0.00 0.48 0.00 70 1009.9
20260509155804 19 325 4.8 16.1 0.00 0.48 0.00 73 1009.9
20260509155306 19 190 8.0 16.1 0.00 0.48 0.00 75 1009.9
20260509154803 18 10 8.0 22.5 0.00 0.48 0.00 74 1010.0
20260509154303 18 155 8.0 22.5 0.00 0.48 0.00 76 1010.0
20260509153803 18 145 8.0 14.5 0.00 0.48 0.00 77 1010.0
20260509153303 18 145 8.0 11.3 0.00 0.48 0.00 77 1010.0
20260509152803 18 145 4.8 16.1 0.00 0.48 0.00 79 1010.1
20260509152306 17 197 8.0 16.1 0.00 0.48 0.00 79 1010.1
20260509151804 17 167 9.7 19.3 0.00 0.48 0.00 80 1010.1
20260509151303 17 145 9.7 19.3 0.00 0.48 0.00 81 1010.1
20260509150804 17 145 9.7 12.9 0.00 0.48 0.00 82 1010.0
20260509150304 17 145 4.8 12.9 0.00 0.48 0.00 83 1010.0
20260509145803 17 145 4.8 12.9 0.00 0.48 0.00 84 1010.0
20260509145306 17 181 4.8 14.5 0.00 0.48 0.00 84 1010.0
20260509144803 17 145 4.8 8.0 0.00 0.48 0.00 84 1009.9
20260509144303 16 234 8.0 8.0 0.00 0.48 0.00 84 1009.9
20260509143803 16 303 8.0 9.7 0.00 0.48 0.00 85 1009.9
20260509143304 16 145 8.0 9.7 0.00 0.48 0.00 86 1009.9
20260509142804 16 145 8.0 12.9 0.00 0.48 0.00 86 1009.7
20260509141803 16 123 8.0 12.9 0.00 0.48 0.00 88 1009.7
20260509141303 16 145 4.8 9.7 0.00 0.48 0.00 88 1009.7
20260509140804 16 145 3.2 11.3 0.00 0.48 0.00 88 1009.6
20260509140303 15 219 3.2 9.7 0.00 0.48 0.00 88 1009.6
20260509135804 15 145 3.2 8.0 0.00 0.48 0.00 89 1009.6
20260509135306 15 229 3.2 11.3 0.00 0.48 0.00 89 1009.6
20260509134803 15 123 3.2 4.8 0.00 0.48 0.00 89 1009.5
20260509133804 15 123 4.8 12.9 0.00 0.48 0.00 89 1009.5
20260509133304 15 173 4.8 12.9 0.00 0.48 0.00 90 1009.5
20260509132306 15 177 4.8 12.9 0.00 0.48 0.00 90 1009.8
20260509131804 15 100 8.0 4.8 0.00 0.48 0.00 91 1009.8
20260509130803 15 167 4.8 9.7 0.00 0.48 0.00 91 1009.9
20260509130304 14 93 3.2 16.1 0.00 0.48 0.00 91 1009.9
20260509125803 14 77 3.2 12.9 0.00 0.48 0.00 92 1009.9
20260509125307 15 167 4.8 12.9 0.00 0.48 0.00 92 1009.9
20260509124804 14 145 3.2 14.5 0.00 0.48 0.00 93 1009.8
20260509124303 14 145 1.6 4.8 0.00 0.48 0.00 93 1009.8
20260509122804 14 145 3.2 12.9 0.00 0.48 0.00 94 1009.4
20260509122306 14 166 3.2 12.9 0.00 0.48 0.00 94 1009.4
20260509121803 14 235 3.2 12.9 0.00 0.48 0.00 94 1009.4
20260509121304 14 121 4.8 9.7 0.00 0.48 0.00 95 1009.4
20260509120803 14 145 4.8 11.3 0.00 0.48 0.00 95 1009.7
20260509115804 14 145 3.2 8.0 0.00 0.48 0.00 95 1009.7
20260509115306 13 208 3.2 9.7 0.00 0.48 0.00 95 1009.7
20260509114803 13 10 1.6 8.0 0.00 0.48 0.00 95 1009.3
20260509113803 13 190 0.0 0.0 0.00 0.48 0.00 95 1009.3
20260509113304 13 133 1.6 3.2 0.00 0.48 0.00 96 1009.3
20260509112804 13 167 0.0 3.2 0.00 0.48 0.00 96 1009.4
20260509112306 13 145 1.6 3.2 0.00 0.48 0.00 96 1009.4
20260509111804 13 347 1.6 3.2 0.00 0.48 0.00 96 1009.4
20260509111303 13 123 3.2 8.0 0.00 0.48 0.00 96 1009.4
20260509110804 13 145 3.2 9.7 0.00 0.48 0.00 96 1009.7